Tracking 31027 objects as of 19-Jul-2025
HD Live streaming from Space Station
objects crossing your sky now

STARLINK-4353

Track STARLINK-4353 now!
10-day predictions
STARLINK-4353 is classified as:


NORAD ID: 53214
Int'l Code: 2022-084AB
Perigee: 567.6 km
Apogee: 572.7 km
Inclination: 97.7 °
Period: 95.9 minutes
Semi major axis: 6941 km
RCS: Unknown
Launch date: July 22, 2022
Source: United States (US)
Launch site: AIR FORCE WESTERN TEST RANGE (AFWTR)
Your satellite tracking list
STARLINK-3315
Track 1 satellite(s)




NASA's NSSDC Master Catalog

Two Line Element Set (TLE):
1 53214U 22084AB  25199.59980463 -.00000516  00000-0 -35565-4 0  9993
2 53214  97.6551 260.7565 0003672 127.8900 232.2656 15.01255955164191
Source of the keplerian elements: AFSPC